Previsão horária em Plishkincy

Hoje, 8 Março, Segunda-feira

Tempo Temperatura Precipitação Vento Pressão Humidade
00:00 -11°C° 0.3 mm 6 m/s 731 mmHg 93%
01:00 -11°C° 0.2 mm 6 m/s 730 mmHg 93%
02:00 -11°C° 0.2 mm 5 m/s 729 mmHg 94%
03:00 -10°C° 0 mm 4 m/s 728 mmHg 94%
04:00 -10°C° 0.3 mm 4 m/s 728 mmHg 95%
05:00 -9°C° 0.3 mm 3 m/s 728 mmHg 95%
06:00 -8°C° 0.3 mm 2 m/s 727 mmHg 96%
07:00 -8°C° 0.5 mm 3 m/s 727 mmHg 95%
08:00 -10°C° 0.5 mm 5 m/s 728 mmHg 94%
09:00 -10°C° 0 mm 6 m/s 729 mmHg 92%
10:00 -10°C° 0 mm 6 m/s 729 mmHg 90%
11:00 -10°C° 0 mm 6 m/s 730 mmHg 87%
12:00 -10°C° 0 mm 6 m/s 731 mmHg 85%
13:00 -10°C° 0 mm 5 m/s 731 mmHg 84%
14:00 -10°C° 0 mm 5 m/s 732 mmHg 84%
15:00 -8°C° 0 mm 4 m/s 732 mmHg 83%
16:00 -10°C° 0 mm 4 m/s 733 mmHg 85%
17:00 -10°C° 0 mm 3 m/s 733 mmHg 87%
18:00 -12°C° 0 mm 3 m/s 733 mmHg 90%
19:00 -13°C° 0 mm 3 m/s 734 mmHg 91%
20:00 -13°C° 0 mm 3 m/s 734 mmHg 92%
21:00 -14°C° 0 mm 3 m/s 734 mmHg 93%
22:00 -15°C° 0 mm 3 m/s 735 mmHg 95%
23:00 -16°C° 0 mm 3 m/s 735 mmHg 96%

Amanhã, 9 Março, Terça-feira

Tempo Temperatura Precipitação Vento Pressão Humidade
00:00 -17°C° 0 mm 3 m/s 735 mmHg 97%
01:00 -17°C° 0 mm 3 m/s 736 mmHg 97%
02:00 -17°C° 0 mm 3 m/s 737 mmHg 97%
03:00 -18°C° 0 mm 3 m/s 738 mmHg 97%
04:00 -17°C° 0 mm 2 m/s 738 mmHg 97%
05:00 -17°C° 0 mm 2 m/s 738 mmHg 97%
06:00 -18°C° 0 mm 2 m/s 739 mmHg 97%
07:00 -17°C° 0 mm 2 m/s 739 mmHg 96%
08:00 -17°C° 0 mm 2 m/s 740 mmHg 95%
09:00 -16°C° 0 mm 2 m/s 741 mmHg 94%
10:00 -16°C° 0 mm 2 m/s 741 mmHg 93%
11:00 -15°C° 0 mm 2 m/s 741 mmHg 91%
12:00 -14°C° 0 mm 2 m/s 742 mmHg 89%
13:00 -14°C° 0.1 mm 2 m/s 742 mmHg 90%
14:00 -15°C° 0.1 mm 3 m/s 742 mmHg 90%
15:00 -15°C° 0.1 mm 3 m/s 742 mmHg 91%
16:00 -15°C° 0.1 mm 3 m/s 742 mmHg 92%
17:00 -16°C° 0.1 mm 3 m/s 743 mmHg 93%
18:00 -18°C° 0.1 mm 4 m/s 743 mmHg 95%
19:00 -18°C° 0 mm 4 m/s 743 mmHg 95%
20:00 -19°C° 0 mm 4 m/s 744 mmHg 95%
21:00 -20°C° 0 mm 4 m/s 744 mmHg 94%
22:00 -22°C° 0 mm 5 m/s 744 mmHg 95%
23:00 -24°C° 0 mm 5 m/s 744 mmHg 96%

Depois de amanhã, 10 Março, Quarta-feira

Tempo Temperatura Precipitação Vento Pressão Humidade
00:00 -26°C° 0 mm 5 m/s 744 mmHg 96%
01:00 -27°C° 0 mm 5 m/s 745 mmHg 96%
02:00 -29°C° 0 mm 5 m/s 745 mmHg 96%
03:00 -31°C° 0 mm 5 m/s 745 mmHg 96%
04:00 -32°C° 0 mm 5 m/s 745 mmHg 96%
05:00 -33°C° 0 mm 5 m/s 746 mmHg 95%
06:00 -34°C° 0 mm 5 m/s 746 mmHg 95%
07:00 -34°C° 0 mm 5 m/s 747 mmHg 94%
08:00 -33°C° 0 mm 5 m/s 747 mmHg 93%
09:00 -33°C° 0 mm 5 m/s 748 mmHg 93%
10:00 -31°C° 0 mm 5 m/s 748 mmHg 91%
11:00 -29°C° 0 mm 5 m/s 748 mmHg 90%
12:00 -27°C° 0 mm 5 m/s 748 mmHg 88%
13:00 -26°C° 0 mm 5 m/s 748 mmHg 87%
14:00 -26°C° 0 mm 5 m/s 749 mmHg 86%
15:00 -25°C° 0 mm 5 m/s 749 mmHg 85%
16:00 -26°C° 0 mm 5 m/s 749 mmHg 88%
17:00 -26°C° 0 mm 4 m/s 749 mmHg 90%
18:00 -27°C° 0 mm 4 m/s 749 mmHg 92%
19:00 -27°C° 0 mm 4 m/s 750 mmHg 93%
20:00 -29°C° 0 mm 4 m/s 750 mmHg 94%
21:00 -29°C° 0 mm 4 m/s 750 mmHg 96%
22:00 -29°C° 0 mm 3 m/s 750 mmHg 97%
23:00 -29°C° 0 mm 3 m/s 750 mmHg 97%

11 Março, Quinta-feira

Tempo Temperatura Precipitação Vento Pressão Humidade
00:00 -29°C° 0 mm 3 m/s 750 mmHg 98%
01:00 -30°C° 0 mm 4 m/s 751 mmHg 98%
02:00 -30°C° 0 mm 4 m/s 751 mmHg 98%
03:00 -30°C° 0 mm 4 m/s 751 mmHg 98%
04:00 -29°C° 0 mm 4 m/s 751 mmHg 96%
05:00 -28°C° 0 mm 5 m/s 751 mmHg 95%
06:00 -27°C° 0 mm 5 m/s 751 mmHg 93%
07:00 -26°C° 0.1 mm 5 m/s 751 mmHg 93%
08:00 -24°C° 0.1 mm 5 m/s 751 mmHg 93%
09:00 -23°C° 0.1 mm 6 m/s 751 mmHg 94%
10:00 -21°C° 0 mm 6 m/s 751 mmHg 92%
11:00 -20°C° 0 mm 6 m/s 751 mmHg 90%
12:00 -17°C° 0 mm 6 m/s 751 mmHg 88%
13:00 -16°C° 0 mm 6 m/s 751 mmHg 85%
14:00 -15°C° 0 mm 6 m/s 751 mmHg 82%
15:00 -12°C° 0 mm 6 m/s 751 mmHg 80%
16:00 -13°C° 0 mm 5 m/s 752 mmHg 82%
17:00 -14°C° 0 mm 5 m/s 752 mmHg 84%
18:00 -15°C° 0 mm 4 m/s 752 mmHg 86%
19:00 -15°C° 0 mm 5 m/s 752 mmHg 87%
20:00 -17°C° 0 mm 5 m/s 753 mmHg 88%
21:00 -17°C° 0 mm 5 m/s 753 mmHg 89%
22:00 -17°C° 0 mm 4 m/s 753 mmHg 90%
23:00 -18°C° 0 mm 4 m/s 754 mmHg 91%

12 Março, Sexta-feira

Tempo Temperatura Precipitação Vento Pressão Humidade
00:00 -19°C° 0 mm 4 m/s 754 mmHg 91%
01:00 -20°C° 0 mm 4 m/s 754 mmHg 91%
02:00 -20°C° 0 mm 4 m/s 754 mmHg 92%
03:00 -22°C° 0 mm 4 m/s 754 mmHg 92%
04:00 -22°C° 0 mm 4 m/s 754 mmHg 92%
05:00 -23°C° 0 mm 4 m/s 755 mmHg 93%
06:00 -23°C° 0 mm 4 m/s 755 mmHg 94%
07:00 -22°C° 0 mm 4 m/s 755 mmHg 93%
08:00 -20°C° 0 mm 4 m/s 755 mmHg 93%
09:00 -19°C° 0 mm 5 m/s 756 mmHg 92%
10:00 -18°C° 0 mm 5 m/s 756 mmHg 90%
11:00 -17°C° 0 mm 5 m/s 756 mmHg 88%
12:00 -15°C° 0 mm 5 m/s 756 mmHg 86%
13:00 -15°C° 0 mm 6 m/s 756 mmHg 85%
14:00 -15°C° 0 mm 6 m/s 756 mmHg 85%
15:00 -14°C° 0 mm 6 m/s 755 mmHg 84%
16:00 -14°C° 0 mm 5 m/s 756 mmHg 86%
17:00 -15°C° 0 mm 5 m/s 756 mmHg 88%
18:00 -16°C° 0 mm 4 m/s 756 mmHg 90%
19:00 -16°C° 0 mm 4 m/s 756 mmHg 91%
20:00 -17°C° 0 mm 4 m/s 756 mmHg 93%
21:00 -17°C° 0 mm 4 m/s 756 mmHg 94%
22:00 -18°C° 0 mm 4 m/s 756 mmHg 95%
23:00 -19°C° 0 mm 4 m/s 756 mmHg 95%

13 Março, Sábado

Tempo Temperatura Precipitação Vento Pressão Humidade
00:00 -20°C° 0 mm 4 m/s 756 mmHg 95%
01:00 -22°C° 0 mm 4 m/s 757 mmHg 95%
02:00 -23°C° 0 mm 4 m/s 757 mmHg 95%
03:00 -23°C° 0 mm 4 m/s 757 mmHg 95%
04:00 -24°C° 0 mm 4 m/s 757 mmHg 94%
05:00 -25°C° 0 mm 4 m/s 757 mmHg 93%
06:00 -26°C° 0 mm 4 m/s 757 mmHg 92%
07:00 -24°C° 0 mm 4 m/s 757 mmHg 90%
08:00 -23°C° 0 mm 4 m/s 757 mmHg 88%
09:00 -21°C° 0 mm 5 m/s 757 mmHg 85%
10:00 -19°C° 0 mm 5 m/s 757 mmHg 84%
11:00 -18°C° 0 mm 5 m/s 757 mmHg 83%
12:00 -15°C° 0 mm 5 m/s 757 mmHg 82%
13:00 -14°C° 0 mm 5 m/s 757 mmHg 81%
14:00 -13°C° 0 mm 5 m/s 756 mmHg 81%
15:00 -12°C° 0 mm 6 m/s 756 mmHg 81%
16:00 -13°C° 0 mm 5 m/s 756 mmHg 83%
17:00 -14°C° 0 mm 5 m/s 756 mmHg 85%
18:00 -15°C° 0 mm 5 m/s 755 mmHg 87%
19:00 -17°C° 0 mm 5 m/s 755 mmHg 88%
20:00 -17°C° 0 mm 5 m/s 755 mmHg 90%
21:00 -18°C° 0 mm 5 m/s 755 mmHg 91%
22:00 -18°C° 0 mm 5 m/s 755 mmHg 91%
23:00 -18°C° 0 mm 5 m/s 754 mmHg 91%
Mostrar mais

Necessitamos do seu Consentimento

A Meteoprog e os seus Fornecedores de Serviços podem armazenar e aceder a dados pessoais como cookies, identificadores do dispositivo ou outras tecnologias semelhantes existentes no seu dispositivo e processar estes dados para personalizar conteúdos e anúncios, assim como funcionalidades nas redes sociais e análise de tráfego.

  • Armazenar e/ou aceder a informações no seu dispositivo

    Os cookies, identificadores do dispositivo ou outras informações podem ser armazenados ou acedidos no seu dispositivo, para os fins acima indicados.

  • Anúncios e conteúdos personalizados, medição de anúncios e conteúdos, dados sobre o público-alvo e desenvolvimento de produtos

    Os anúncios e os conteúdos podem ser personalizados com base num perfil. Podem ser adicionados dados adicionais para uma maior personalização dos anúncios e dos conteúdos. A eficácia dos anúncios e dos conteúdos pode ser medida. Podem ser obtidas informações sobre o público que visualizou os anúncios e os conteúdos. Estes dados podem ser usados para desenvolver ou melhorar sistemas, softwares ou a experiência do utilizador.

Ao clicar em "Eu concordo”, permitirá o uso de cookies, identificadores do dispositivo e web beacons mencionados ou outras tecnologias semelhantes. As configurações do navegador do seu dispositivo podem ser alteradas.

Para certos fins, podem ser invocados interesses legítimos ao invés de consentimento. Pode ler mais informação sobre este assunto na nossa Política de Privacidade e Cookies.